Regional Weather Roundup
Issued by NWS Sioux Falls, SD

Home | Current Version | Previous Version | Text Only | Print | Product List | Glossary Off
Versions: 1 2 3 4 5 6 7 8 9 10 11 12 13 14 15 16 17 18 19 20 21 22 23 24 25 26 27 28 29 30 31 32 33 34 35 36 37 38 39 40 41 42 43 44 45 46 47 48 49 50

000
ASUS43 KFSD 171402
RWRFSD

WEATHER ROUNDUP FOR SE SOUTH DAKOTA/SW MINNESOTA/NW IOWA
NATIONAL WEATHER SERVICE SIOUX FALLS SD
800 AM CST FRI NOV 17 2017

NOTE: "FAIR" INDICATES FEW OR NO CLOUDS BELOW 12,000 FEET WITH NO
SIGNIFICANT WEATHER AND OR OBSTRUCTIONS TO VISIBILITY.


SDZ038>040-050-052>070-171500-
SOUTHEAST SOUTH DAKOTA

CITY           SKY/WX    TMP DP  RH WIND       PRES   REMARKS
BROOKINGS      CLOUDY    35  31  85 E3        29.59R
CHAMBERLAIN    PTCLDY    42  33  70 NW9       29.62F
HURON          CLOUDY    33  30  88 N13       29.60R WCI  24
MADISON        FAIR      36  36 100 CALM      29.57R
MITCHELL       PTCLDY    37  33  85 N9        29.56S
SIOUX FALLS    CLOUDY    44  39  82 S9        29.58S
WINNER         FAIR      37  30  75 NW8       29.65R
YANKTON        PTCLDY    45  42  89 S6        29.58S
$$

MNZ071-072-080-081-089-090-097-098-171500-
SOUTHWEST MINNESOTA

CITY           SKY/WX    TMP DP  RH WIND       PRES   REMARKS
FAIRMONT       CLOUDY    38  33  82 S13       29.67S
JACKSON        CLOUDY    39  32  75 S15       29.64R
LUVERNE        CLOUDY    43  36  75 S10       29.59F
MARSHALL       CLOUDY    37  32  82 SE6       29.60F
MONTEVIDEO     CLOUDY    32  30  93 CALM      29.62S
PIPESTONE      CLOUDY    41  36  81 S10       29.57F
REDWOOD FALLS  CLOUDY    38  30  73 SE12      29.63F
WINDOM           N/A     41  27  56 S8G17     29.63S
WORTHINGTON    CLOUDY    42  36  79 S13       29.61S
$$

IAZ001>003-012>014-020>022-031-032-NEZ013-014-SDZ071-171500-
NORTHWEST IOWA

CITY           SKY/WX    TMP DP  RH WIND       PRES   REMARKS
CHEROKEE       CLOUDY    46  40  78 S8        29.64F
DENISON        CLOUDY    48  43  81 VRB6      29.68S
ESTHERVILLE    CLOUDY    39  34  82 S25G35    29.64F
LE MARS        CLOUDY    48  41  76 S14G21    29.61F
ORANGE CITY    CLOUDY    48  45  87 S14G22    29.61F
SHELDON        CLOUDY    46  39  76 S13G21    29.60F
SIOUX CITY     CLOUDY    46  38  73 SE9       29.62F
SPENCER        CLOUDY    42  34  73 S17       29.64S
STORM LAKE     CLOUDY    45  37  76 S16       29.65F
$$

ABBREVIATIONS USED IN REMARKS
   TC - TEMPERATURE IN CELSIUS
  WCI - WIND CHILL INDEX
   HX - HEAT INDEX
  VSB - VISIBILITY





USA.gov is the U.S. government's official web portal to all federal, state and local government web resources and services.